Location: Unspecified
(51.6250°N, 0.8230°E)
Time: 08:55:31
(UTC+01:00)

Okean 3 - Pass Details

Date: 07 August 2020
Orbit: 576 x 601 km, 82.5° (Epoch: 23 September)

Event Time Altitude Azimuth Distance (km) Brightness Sun altitude
Rises 01:05:11 0° 335° (NNW) 2,846 8.1 -22.0°
Reaches altitude 10° 01:08:05 10° 314° (NW) 1,942 6.6 -22.0°
Maximum altitude 01:10:42 16° 276° (W) 1,583 5.7 -22.0°
Enters shadow 01:11:32 15° 262° (W) 1,623 5.6 -22.0°
